ISS DEB (44789 NORAD) Tracking and Keplerian Element Data

This shows tracking and keplerian element data for the satellite.

Feedback or suggestion? Click here.




ElementValue
Catalog44789
NameISS DEB
Epoch Orbit8457
Epoch Day130.42696748
Epoch Year2021
RAAN126.0605
Inclination51.6262
Eccentricity0.0006951
Argument of Perigee69.8193
Mean Anonmoly290.356
Mean Motion15.886074
Decay Rate0.00158303
L11 44789U 98067QU 21130.42696748 .00158303 00000-0 54426-3 0 9999
L22 44789 51.6262 126.0605 0006951 69.8193 290.3560 15.88607400 84571

Live tracking and technical data element details for ISS DEB (NORAD 44789). ISS DEB can be tracked NOW for your location showing map with azimuth and elevation plus other details from your city location.

Track the satellite on the map from your city or location and see movement details for azimuth, elevation, latitude, longitude, range, height, and movement on the map or in text.







IsCatalogInMostPopularTable: catalog: 44789, numindb: 25673
Update: records affected: 1



GetName: 44789 ISS DEB

Hit Count: updated at: Tue, 11 May 2021 19:38:14 GMT